Regional Weather Roundup
Issued by NWS

Home | Current Version | Previous Version | Text Only | Print | Product List | Glossary Off
Versions: 1 2 3 4 5 6 7 8 9 10 11 12 13 14 15 16 17 18 19 20 21 22 23 24 25 26 27 28 29 30 31 32 33 34 35 36 37 38 39 40 41 42 43 44 45 46 47 48 49 50

000
ASUS43 KOAX 190502
RWRNE

WEATHER ROUNDUP FOR NEBRASKA
NATIONAL WEATHER SERVICE OMAHA NE
1100 PM CST THU JAN 18 2018

NOTES: SATELLITE DATA IS BEING USED TO AUGMENT CLOUD COVER ABOVE
       12000 FEET.
       "FAIR" INDICATES FEW OR NO CLOUDS BELOW 12,000 FEET WITH NO
       SIGNIFICANT WEATHER AND/OR OBSTRUCTIONS TO VISIBILITY.


NEZ001>004-019>022-054>056-190600-
NEBRASKA PANHANDLE

CITY           SKY/WX    TMP DP  RH WIND       PRES   REMARKS
SCOTTSBLUFF    CLOUDY    36  30  79 E6        29.84F WCI  31
ALLIANCE       CLOUDY    38  31  76 W8        29.82F WCI  32
CHADRON        CLOUDY    32  28  85 SW6       29.79F WCI  26
GORDON         FAIR      39  30  70 CALM      29.79S
KIMBALL        CLOUDY    38  17  42 W13       29.91S WCI  30
SIDNEY         CLOUDY    33  20  58 W7        29.89F WCI  27
$$

NEZ057>060-069>072-079>082-190600-
SOUTHWEST NEBRASKA

CITY           SKY/WX    TMP DP  RH WIND       PRES   REMARKS
NORTH PLATTE   CLOUDY    27  23  85 W6        29.86F WCI  20
IMPERIAL       CLOUDY    36  24  62 W3        29.88S
LEXINGTON      MOCLDY    32  27  83 CALM      29.86F
MCCOOK         MOCLDY    31  24  75 SW7       29.88F WCI  24
OGALLALA       CLOUDY    32  26  81 SW6       29.87F WCI  26
$$

NEZ005>010-023>029-035>040-094-190600-
NORTH CENTRAL NEBRASKA

CITY           SKY/WX    TMP DP  RH WIND       PRES   REMARKS
VALENTINE      CLOUDY    37  30  75 SW9       29.75F WCI  30
AINSWORTH      CLOUDY    39  32  75 SW12      29.76F WCI  32
BROKEN BOW     MOCLDY    34  27  75 CALM      29.83F
O`NEILL        CLOUDY    37  32  82 SW8       29.78F WCI  31
ORD            CLOUDY    31  27  85 SW3       29.82F
THEDFORD       MOCLDY    38  31  74 SW7       29.82F WCI  33
$$

NEZ041-046>049-061>064-073>077-083>087-190600-
SOUTH CENTRAL NEBRASKA

CITY           SKY/WX    TMP DP  RH WIND       PRES   REMARKS
GRAND ISLAND   CLOUDY    34  28  79 SW9       29.86F WCI  27
AURORA         CLOUDY    33  27  77 SW9       29.86F WCI  25
HASTINGS       CLOUDY    36  24  62 SW3       29.87F
HEBRON         CLOUDY    37  25  61 SW9       29.90F WCI  30
HOLDREGE       CLOUDY    40  28  62 SW7       29.87S WCI  35
KEARNEY        CLOUDY    37  26  64 SW10      29.86F WCI  30
YORK           CLOUDY    32  28  86 SW8       29.87F WCI  25
$$

NEZ011>018-030>034-042>045-190600-
NORTHEAST NEBRASKA

CITY           SKY/WX    TMP DP  RH WIND       PRES   REMARKS
NORFOLK        CLOUDY    31  27  85 CALM      29.81F
ALBION         MOCLDY    34  29  82 NW6       29.82F WCI  29
BLAIR          CLOUDY    30  24  77 S9        29.86F WCI  22
COLUMBUS       CLOUDY    24  22  91 SW5       29.85F WCI  18
FREMONT        CLOUDY    32  25  75 SW8       29.87S WCI  25
TEKAMAH        CLOUDY    26  21  81 S3        29.87S
WAYNE          CLOUDY    31  30  96 S5        29.81F WCI  26
$$

NEZ050>053-065>068-078-088>093-190600-
SOUTHEAST NEBRASKA

CITY           SKY/WX    TMP DP  RH WIND       PRES   REMARKS
LINCOLN        CLOUDY    31  23  72 S3        29.90F
OMAHA EPPLEY   CLOUDY    26  20  77 S10       29.88F WCI  16
BEATRICE       CLOUDY    37  25  63 S10       29.91S WCI  29
FALLS CITY     CLOUDY    35  24  64 S10       29.95F WCI  27
NEBRASKA CITY  CLOUDY    29  24  81 S10       29.91F WCI  20
PLATTSMOUTH    CLOUDY    31  24  75 S13       29.89S WCI  21
$$

NEZ044-045-051>053-067-190600-
OMAHA AREA

CITY           SKY/WX    TMP DP  RH WIND       PRES   REMARKS
OMAHA EPPLEY   CLOUDY    26  20  77 S10       29.88F WCI  16
BLAIR          CLOUDY    30  24  77 S9        29.86F WCI  22
FREMONT        CLOUDY    32  25  75 SW8       29.87S WCI  25
MILLARD        CLOUDY    28  22  80 CALM      29.88F
OFFUTT AFB     CLOUDY    20  17  87 E3        29.89F
PLATTSMOUTH    CLOUDY    31  24  75 S13       29.89S WCI  21
WAHOO          FAIR      32  25  76 SW8       29.87F WCI  24
$$



USA.gov is the U.S. government's official web portal to all federal, state and local government web resources and services.